Location: Piotrkow Trybunalski
(51.4000°N, 19.6830°E)
Time: 22:33:23
(UTC+01:00)

ISS - Pass Details

Date: 28 January 2020
Orbit: 415 x 423 km, 51.6° (Epoch: 25 February)

Event Time Altitude Azimuth Distance (km) Brightness Sun altitude
Rises 18:25:12 0° 267° (W) 2,379 1.8 -18.9°
Reaches altitude 10° 18:27:18 10° 268° (W) 1,513 0.3 -19.2°
Maximum altitude 18:30:42 85° 357° (N) 430 -3.8 -19.8°
Enters shadow 18:30:48 82° 45° (NE) 432 -3.9 -19.8°
